| time (UTC) | temp C | wind direction | speed KPH | gust KPH | rain 1hr cm | rain 24hr cm | rain mn cm | humidity % | barometer mb |
| 20260508185749 | 19 | 248 | 9.7 | 11.3 | 0.00 | 0.00 | 0.00 | 40 | 1013.9 |
| 20260508185247 | 19 | 228 | 9.7 | 14.5 | 0.00 | 0.00 | 0.00 | 46 | 1013.8 |
| 20260508184744 | 20 | 311 | 9.7 | 20.9 | 0.00 | 0.00 | 0.00 | 45 | 1014.0 |
| 20260508184241 | 20 | 319 | 6.4 | 6.4 | 0.00 | 0.00 | 0.00 | 44 | 1014.1 |
| 20260508183738 | 19 | 313 | 1.6 | 9.7 | 0.00 | 0.00 | 0.00 | 43 | 1013.9 |
| 20260508183234 | 19 | 301 | 3.2 | 9.7 | 0.00 | 0.00 | 0.00 | 39 | 1013.9 |
| 20260508182730 | 18 | 267 | 9.7 | 20.9 | 0.00 | 0.00 | 0.00 | 41 | 1014.2 |
| 20260508182227 | 18 | 312 | 11.3 | 20.9 | 0.00 | 0.00 | 0.00 | 41 | 1014.3 |
| 20260508181723 | 18 | 308 | 12.9 | 24.1 | 0.00 | 0.00 | 0.00 | 43 | 1014.4 |
| 20260508181220 | 18 | 314 | 12.9 | 20.9 | 0.00 | 0.00 | 0.00 | 45 | 1014.6 |
| 20260508180717 | 18 | 292 | 9.7 | 14.5 | 0.00 | 0.00 | 0.00 | 43 | 1014.5 |
| 20260508180214 | 18 | 305 | 9.7 | 14.5 | 0.00 | 0.00 | 0.00 | 46 | 1014.4 |
| 20260508175710 | 18 | 233 | 9.7 | 14.5 | 0.00 | 0.00 | 0.00 | 41 | 1014.6 |
| 20260508175207 | 18 | 178 | 6.4 | 11.3 | 0.00 | 0.00 | 0.00 | 39 | 1014.7 |
| 20260508174705 | 17 | 298 | 4.8 | 14.5 | 0.00 | 0.00 | 0.00 | 42 | 1014.6 |
| 20260508174201 | 18 | 354 | 1.6 | 11.3 | 0.00 | 0.00 | 0.00 | 43 | 1014.5 |
| 20260508173658 | 18 | 281 | 4.8 | 9.7 | 0.00 | 0.00 | 0.00 | 41 | 1014.6 |
| 20260508173154 | 18 | 251 | 9.7 | 12.9 | 0.00 | 0.00 | 0.00 | 45 | 1014.7 |
| 20260508172652 | 17 | 250 | 3.2 | 4.8 | 0.00 | 0.00 | 0.00 | 43 | 1014.7 |
| 20260508172149 | 17 | 309 | 6.4 | 16.1 | 0.00 | 0.00 | 0.00 | 43 | 1014.9 |
| 20260508171645 | 17 | 248 | 8.0 | 24.1 | 0.00 | 0.00 | 0.00 | 44 | 1015.1 |
| 20260508171141 | 17 | 256 | 8.0 | 20.9 | 0.00 | 0.00 | 0.00 | 43 | 1015.2 |
| 20260508170638 | 18 | 329 | 6.4 | 11.3 | 0.00 | 0.00 | 0.00 | 45 | 1015.2 |
| 20260508170136 | 18 | 295 | 6.4 | 17.7 | 0.00 | 0.00 | 0.00 | 46 | 1015.3 |
| 20260508165633 | 17 | 325 | 9.7 | 24.1 | 0.00 | 0.00 | 0.00 | 45 | 1015.5 |
| 20260508165131 | 17 | 326 | 11.3 | 16.1 | 0.00 | 0.00 | 0.00 | 46 | 1015.7 |
| 20260508164627 | 18 | 318 | 17.7 | 22.5 | 0.00 | 0.00 | 0.00 | 41 | 1016.0 |
| 20260508164123 | 17 | 298 | 8.0 | 11.3 | 0.00 | 0.00 | 0.00 | 43 | 1015.8 |
| 20260508163621 | 16 | 184 | 6.4 | 12.9 | 0.00 | 0.00 | 0.00 | 44 | 1016.0 |
| 20260508163117 | 16 | 272 | 6.4 | 25.7 | 0.00 | 0.00 | 0.00 | 45 | 1016.0 |
| 20260508162614 | 17 | 299 | 1.6 | 11.3 | 0.00 | 0.00 | 0.00 | 46 | 1016.0 |
| 20260508162112 | 16 | 315 | 12.9 | 16.1 | 0.00 | 0.00 | 0.00 | 45 | 1016.0 |
| 20260508161608 | 16 | 309 | 8.0 | 14.5 | 0.00 | 0.00 | 0.00 | 46 | 1016.2 |
| 20260508161106 | 16 | 316 | 4.8 | 16.1 | 0.00 | 0.00 | 0.00 | 43 | 1016.2 |
| 20260508160604 | 16 | 257 | 9.7 | 14.5 | 0.00 | 0.00 | 0.00 | 46 | 1016.4 |
| 20260508160100 | 16 | 312 | 12.9 | 14.5 | 0.00 | 0.00 | 0.00 | 46 | 1016.1 |
| 20260508155557 | 16 | 312 | 9.7 | 14.5 | 0.00 | 0.00 | 0.00 | 43 | 1016.1 |
| 20260508155054 | 16 | 312 | 9.7 | 25.7 | 0.00 | 0.00 | 0.00 | 46 | 1016.2 |
| 20260508154551 | 17 | 323 | 9.7 | 14.5 | 0.00 | 0.00 | 0.00 | 41 | 1016.4 |
| 20260508154048 | 17 | 254 | 8.0 | 9.7 | 0.00 | 0.00 | 0.00 | 42 | 1016.2 |
| 20260508153545 | 16 | 314 | 12.9 | 25.7 | 0.00 | 0.00 | 0.00 | 42 | 1016.3 |
| 20260508153041 | 16 | 235 | 6.4 | 16.1 | 0.00 | 0.00 | 0.00 | 43 | 1016.4 |
| 20260508152539 | 16 | 313 | 9.7 | 20.9 | 0.00 | 0.00 | 0.00 | 45 | 1016.4 |
| 20260508152034 | 16 | 213 | 4.8 | 12.9 | 0.00 | 0.00 | 0.00 | 45 | 1016.1 |
| 20260508151531 | 15 | 315 | 12.9 | 22.5 | 0.00 | 0.00 | 0.00 | 48 | 1016.2 |
| 20260508151028 | 16 | 313 | 14.5 | 20.9 | 0.00 | 0.00 | 0.00 | 47 | 1016.4 |
| 20260508150525 | 16 | 297 | 3.2 | 6.4 | 0.00 | 0.00 | 0.00 | 48 | 1016.3 |
| 20260508150020 | 15 | 311 | 12.9 | 14.5 | 0.00 | 0.00 | 0.00 | 48 | 1016.3 |
| 20260508145518 | 15 | 312 | 16.1 | 22.5 | 0.00 | 0.00 | 0.00 | 48 | 1016.4 |
| 20260508145014 | 15 | 248 | 9.7 | 17.7 | 0.00 | 0.00 | 0.00 | 47 | 1016.5 |
| 20260508144512 | 15 | 222 | 11.3 | 16.1 | 0.00 | 0.00 | 0.00 | 45 | 1016.3 |
| 20260508144009 | 14 | 313 | 3.2 | 20.9 | 0.00 | 0.00 | 0.00 | 48 | 1016.4 |
| 20260508143506 | 14 | 315 | 6.4 | 11.3 | 0.00 | 0.00 | 0.00 | 51 | 1016.3 |
| 20260508143002 | 13 | 189 | 3.2 | 6.4 | 0.00 | 0.00 | 0.00 | 54 | 1016.4 |
| 20260508142500 | 13 | 301 | 11.3 | 16.1 | 0.00 | 0.00 | 0.00 | 53 | 1016.4 |
| 20260508141956 | 13 | 249 | 6.4 | 20.9 | 0.00 | 0.00 | 0.00 | 51 | 1016.5 |
| 20260508141453 | 13 | 241 | 3.2 | 6.4 | 0.00 | 0.00 | 0.00 | 53 | 1016.5 |
| 20260508140951 | 13 | 251 | 8.0 | 16.1 | 0.00 | 0.00 | 0.00 | 54 | 1016.5 |
| 20260508140448 | 12 | 313 | 3.2 | 9.7 | 0.00 | 0.00 | 0.00 | 56 | 1016.5 |
| 20260508135943 | 12 | 313 | 11.3 | 17.7 | 0.00 | 0.00 | 0.00 | 54 | 1016.7 |
| 20260508135440 | 12 | 313 | 9.7 | 16.1 | 0.00 | 0.00 | 0.00 | 54 | 1016.7 |
| 20260508134936 | 12 | 232 | 6.4 | 16.1 | 0.00 | 0.00 | 0.00 | 58 | 1016.6 |
| 20260508134432 | 12 | 293 | 12.9 | 16.1 | 0.00 | 0.00 | 0.00 | 55 | 1016.8 |
| 20260508133929 | 12 | 321 | 1.6 | 12.9 | 0.00 | 0.00 | 0.00 | 56 | 1016.8 |
| 20260508133427 | 12 | 311 | 8.0 | 12.9 | 0.00 | 0.00 | 0.00 | 58 | 1016.9 |
| 20260508132924 | 12 | 282 | 3.2 | 14.5 | 0.00 | 0.00 | 0.00 | 59 | 1016.8 |
| 20260508132422 | 11 | 88 | 1.6 | 6.4 | 0.00 | 0.00 | 0.00 | 61 | 1016.9 |
| 20260508131918 | 11 | 226 | 3.2 | 3.2 | 0.00 | 0.00 | 0.00 | 60 | 1017.0 |
| 20260508131414 | 11 | 169 | 1.6 | 3.2 | 0.00 | 0.00 | 0.00 | 61 | 1016.8 |
| 20260508130911 | 11 | 173 | 1.6 | 3.2 | 0.00 | 0.00 | 0.00 | 62 | 1016.9 |
| 20260508130408 | 11 | 303 | 0.0 | 1.6 | 0.00 | 0.00 | 0.00 | 63 | 1016.9 |
| 20260508125903 | 10 | 69 | 1.6 | 1.6 | 0.00 | 0.00 | 0.00 | 67 | 1016.9 |
| 20260508125359 | 10 | 106 | 0.0 | 3.2 | 0.00 | 0.00 | 0.00 | 65 | 1016.9 |
| 20260508124858 | 10 | 157 | 0.0 | 1.6 | 0.00 | 0.00 | 0.00 | 76 | 1016.7 |
| 20260508124355 | 8 | 95 | 0.0 | 1.6 | 0.00 | 0.00 | 0.00 | 82 | 1016.9 |
| 20260508123853 | 8 | 77 | 0.0 | 1.6 | 0.00 | 0.00 | 0.00 | 81 | 1017.0 |
| 20260508123351 | 7 | 80 | 0.0 | 0.0 | 0.00 | 0.00 | 0.00 | 85 | 1017.0 |
| 20260508122847 | 7 | 81 | 0.0 | 1.6 | 0.00 | 0.00 | 0.00 | 88 | 1016.7 |
| 20260508122344 | 6 | 81 | 1.6 | 1.6 | 0.00 | 0.00 | 0.00 | 90 | 1016.8 |
| 20260508121841 | -17 | 0.0 | 0.0 | 0.00 | 0.00 | 0.00 | 1016.7 | ||
| 20260508121339 | -17 | 0.0 | 0.0 | 0.00 | 0.00 | 0.00 | 1016.9 | ||
| 20260508120837 | -17 | 0.0 | 0.0 | 0.00 | 0.00 | 0.00 | 1016.8 | ||
| 20260508120334 | 4 | 128 | 1.6 | 3.2 | 0.00 | 0.00 | 0.00 | 96 | 1016.8 |
| 20260508115832 | 4 | 128 | 1.6 | 3.2 | 0.00 | 0.00 | 0.00 | 96 | 1016.7 |
| 20260508115329 | 3 | 183 | 0.0 | 1.6 | 0.00 | 0.00 | 0.00 | 96 | 1016.6 |
| 20260508114826 | 3 | 256 | 0.0 | 0.0 | 0.00 | 0.00 | 0.00 | 96 | 1016.6 |
| 20260508114323 | 3 | 257 | 0.0 | 0.0 | 0.00 | 0.00 | 0.00 | 97 | 1016.6 |
| 20260508113819 | 3 | 257 | 0.0 | 0.0 | 0.00 | 0.00 | 0.00 | 97 | 1016.5 |
| 20260508113318 | 2 | 257 | 0.0 | 0.0 | 0.00 | 0.00 | 0.00 | 98 | 1016.6 |
| 20260508112813 | 2 | 257 | 0.0 | 0.0 | 0.00 | 0.00 | 0.00 | 98 | 1016.6 |
| 20260508112311 | 2 | 257 | 0.0 | 0.0 | 0.00 | 0.00 | 0.00 | 98 | 1016.6 |
| 20260508111807 | 2 | 257 | 0.0 | 0.0 | 0.00 | 0.00 | 0.00 | 98 | 1016.5 |
| 20260508111305 | 1 | 257 | 0.0 | 0.0 | 0.00 | 0.00 | 0.00 | 99 | 1016.4 |
| 20260508110802 | 1 | 257 | 0.0 | 0.0 | 0.00 | 0.00 | 0.00 | 99 | 1016.4 |
| 20260508110259 | 1 | 257 | 0.0 | 0.0 | 0.00 | 0.00 | 0.00 | 99 | 1016.5 |
| 20260508105759 | 1 | 257 | 0.0 | 0.0 | 0.00 | 0.00 | 0.00 | 99 | 1016.3 |
| 20260508105256 | 1 | 257 | 0.0 | 0.0 | 0.00 | 0.00 | 0.00 | 99 | 1016.6 |
| 20260508104753 | 1 | 258 | 0.0 | 0.0 | 0.00 | 0.00 | 0.00 | 99 | 1016.2 |
| 20260508104250 | 1 | 257 | 0.0 | 0.0 | 0.00 | 0.00 | 0.00 | 99 | 1016.2 |
| 20260508103747 | 1 | 257 | 0.0 | 0.0 | 0.00 | 0.00 | 0.00 | 99 | 1016.2 |
| 20260508103244 | 1 | 257 | 0.0 | 0.0 | 0.00 | 0.00 | 0.00 | 99 | 1016.1 |
| 20260508102741 | 1 | 257 | 0.0 | 0.0 | 0.00 | 0.00 | 0.00 | 99 | 1016.0 |
| 20260508102239 | 1 | 257 | 0.0 | 0.0 | 0.00 | 0.00 | 0.00 | 99 | 1016.0 |
| 20260508101736 | 1 | 257 | 0.0 | 0.0 | 0.00 | 0.00 | 0.00 | 99 | 1016.0 |
| 20260508101234 | 1 | 257 | 0.0 | 0.0 | 0.00 | 0.00 | 0.00 | 99 | 1016.0 |
| 20260508100732 | 0 | 257 | 0.0 | 0.0 | 0.00 | 0.00 | 0.00 | 99 | 1015.8 |
| 20260508100229 | 0 | 257 | 0.0 | 0.0 | 0.00 | 0.00 | 0.00 | 99 | 1015.9 |
| 20260508095725 | 0 | 257 | 0.0 | 0.0 | 0.00 | 0.00 | 0.00 | 99 | 1015.9 |
| 20260508095223 | 0 | 257 | 0.0 | 0.0 | 0.00 | 0.00 | 0.00 | 99 | 1015.8 |
| 20260508094719 | 0 | 257 | 0.0 | 0.0 | 0.00 | 0.00 | 0.00 | 99 | 1015.9 |
| 20260508094216 | 0 | 257 | 0.0 | 0.0 | 0.00 | 0.00 | 0.00 | 99 | 1015.7 |
| 20260508093713 | 0 | 257 | 0.0 | 0.0 | 0.00 | 0.00 | 0.00 | 99 | 1015.8 |
| 20260508093211 | 0 | 257 | 0.0 | 0.0 | 0.00 | 0.00 | 0.00 | 99 | 1015.7 |
| 20260508092708 | 0 | 257 | 0.0 | 0.0 | 0.00 | 0.00 | 0.00 | 99 | 1015.7 |
| 20260508092206 | 0 | 257 | 0.0 | 0.0 | 0.00 | 0.00 | 0.00 | 99 | 1015.8 |
| 20260508091703 | 0 | 257 | 0.0 | 0.0 | 0.00 | 0.00 | 0.00 | 98 | 1015.9 |
| 20260508091200 | 0 | 257 | 0.0 | 0.0 | 0.00 | 0.00 | 0.00 | 98 | 1015.9 |
| 20260508090658 | 0 | 257 | 0.0 | 0.0 | 0.00 | 0.00 | 0.00 | 98 | 1015.8 |
| 20260508090155 | 0 | 257 | 0.0 | 0.0 | 0.00 | 0.00 | 0.00 | 98 | 1015.9 |
| 20260508085651 | 0 | 257 | 0.0 | 0.0 | 0.00 | 0.00 | 0.00 | 98 | 1015.7 |
| 20260508085149 | 1 | 257 | 0.0 | 0.0 | 0.00 | 0.00 | 0.00 | 98 | 1015.9 |
| 20260508084640 | 1 | 257 | 0.0 | 0.0 | 0.00 | 0.00 | 0.00 | 98 | 1015.8 |
| 20260508084137 | 0 | 257 | 0.0 | 0.0 | 0.00 | 0.00 | 0.00 | 98 | 1015.9 |
| 20260508083634 | 0 | 257 | 0.0 | 0.0 | 0.00 | 0.00 | 0.00 | 98 | 1015.8 |
| 20260508083132 | 0 | 257 | 0.0 | 0.0 | 0.00 | 0.00 | 0.00 | 98 | 1015.3 |
| 20260508082626 | 0 | 257 | 0.0 | 0.0 | 0.00 | 0.00 | 0.00 | 98 | 1015.8 |
| 20260508082124 | 0 | 257 | 0.0 | 0.0 | 0.00 | 0.00 | 0.00 | 98 | 1015.9 |
| 20260508081622 | 1 | 257 | 0.0 | 0.0 | 0.00 | 0.00 | 0.00 | 98 | 1015.8 |
| 20260508081118 | 1 | 257 | 0.0 | 0.0 | 0.00 | 0.00 | 0.00 | 98 | 1015.8 |
| 20260508080616 | 1 | 257 | 0.0 | 0.0 | 0.00 | 0.00 | 0.00 | 98 | 1015.8 |
| 20260508080114 | 1 | 257 | 0.0 | 0.0 | 0.00 | 0.00 | 0.00 | 98 | 1015.8 |
| 20260508075609 | 1 | 257 | 0.0 | 0.0 | 0.00 | 0.00 | 0.00 | 98 | 1015.7 |
| 20260508075107 | 1 | 257 | 0.0 | 0.0 | 0.00 | 0.00 | 0.00 | 98 | 1015.9 |
| 20260508074605 | 1 | 257 | 0.0 | 0.0 | 0.00 | 0.00 | 0.00 | 98 | 1015.7 |
| 20260508074101 | -17 | 0.0 | 0.0 | 0.00 | 0.00 | 0.00 | 1015.6 | ||
| 20260508073558 | -17 | 0.0 | 0.0 | 0.00 | 0.00 | 0.00 | 1015.8 | ||
| 20260508073056 | -17 | 0.0 | 0.0 | 0.00 | 0.00 | 0.00 | 1015.7 | ||
| 20260508072551 | -17 | 0.0 | 0.0 | 0.00 | 0.00 | 0.00 | 1015.7 | ||
| 20260508072049 | -17 | 0.0 | 0.0 | 0.00 | 0.00 | 0.00 | 1015.8 | ||
| 20260508071547 | -17 | 0.0 | 0.0 | 0.00 | 0.00 | 0.00 | 1015.9 | ||
| 20260508071045 | -17 | 0.0 | 0.0 | 0.00 | 0.00 | 0.00 | 1015.8 | ||
| 20260508070542 | -17 | 0.0 | 0.0 | 0.00 | 0.00 | 0.00 | 1015.8 | ||
| 20260508070040 | -17 | 0.0 | 0.0 | 0.00 | 0.00 | 0.00 | 1016.0 | ||
| 20260508065537 | -17 | 0.0 | 0.0 | 0.00 | 0.00 | 0.00 | 1015.9 | ||
| 20260508065035 | -17 | 0.0 | 0.0 | 0.00 | 0.00 | 0.00 | 1015.8 | ||
| 20260508064532 | -17 | 0.0 | 0.0 | 0.00 | 0.00 | 0.00 | 1015.7 | ||
| 20260508064030 | -17 | 0.0 | 0.0 | 0.00 | 0.00 | 0.00 | 1015.8 | ||
| 20260508063527 | -17 | 0.0 | 0.0 | 0.00 | 0.00 | 0.00 | 1015.8 | ||
| 20260508063026 | -17 | 0.0 | 0.0 | 0.00 | 0.00 | 0.00 | 1015.7 | ||
| 20260508062522 | -17 | 0.0 | 0.0 | 0.00 | 0.00 | 0.00 | 1015.8 | ||
| 20260508062019 | -17 | 0.0 | 0.0 | 0.00 | 0.00 | 0.00 | 1015.9 | ||
| 20260508061517 | -17 | 0.0 | 0.0 | 0.00 | 0.00 | 0.00 | 1016.0 | ||
| 20260508061013 | -17 | 0.0 | 0.0 | 0.00 | 0.00 | 0.00 | 1015.8 | ||
| 20260508060510 | -17 | 0.0 | 0.0 | 0.00 | 0.00 | 0.00 | 1015.7 | ||
| 20260508060007 | -17 | 0.0 | 0.0 | 0.00 | 0.00 | 0.00 | 1015.9 | ||
| 20260508055503 | -17 | 0.0 | 0.0 | 0.00 | 0.00 | 0.00 | 1015.7 | ||
| 20260508054959 | 2 | 257 | 0.0 | 0.0 | 0.00 | 0.00 | 0.00 | 97 | 1016.0 |
| 20260508054456 | 2 | 257 | 0.0 | 0.0 | 0.00 | 0.00 | 0.00 | 97 | 1016.0 |
| 20260508053953 | 2 | 258 | 0.0 | 0.0 | 0.00 | 0.00 | 0.00 | 97 | 1015.9 |
| 20260508053450 | 2 | 258 | 0.0 | 0.0 | 0.00 | 0.00 | 0.00 | 97 | 1016.0 |
| 20260508052948 | 2 | 258 | 0.0 | 0.0 | 0.00 | 0.00 | 0.00 | 97 | 1015.8 |
| 20260508052445 | 2 | 257 | 0.0 | 0.0 | 0.00 | 0.00 | 0.00 | 97 | 1015.9 |
| 20260508051942 | 2 | 257 | 0.0 | 0.0 | 0.00 | 0.00 | 0.00 | 97 | 1015.8 |
| 20260508051437 | 2 | 257 | 0.0 | 0.0 | 0.00 | 0.00 | 0.00 | 97 | 1015.8 |
| 20260508050933 | 2 | 257 | 0.0 | 0.0 | 0.00 | 0.00 | 0.00 | 97 | 1015.9 |
| 20260508050431 | 2 | 257 | 0.0 | 0.0 | 0.00 | 0.00 | 0.00 | 96 | 1016.0 |
| 20260508045926 | 2 | 257 | 0.0 | 0.0 | 0.00 | 0.00 | 0.00 | 96 | 1016.0 |
| 20260508045425 | -17 | 0.0 | 0.0 | 0.00 | 0.00 | 0.00 | 1016.0 | ||
| 20260508044922 | -17 | 0.0 | 0.0 | 0.00 | 0.00 | 0.00 | 1015.9 | ||
| 20260508044419 | -17 | 0.0 | 0.0 | 0.00 | 0.00 | 0.00 | 1015.7 | ||
| 20260508043914 | -17 | 0.0 | 0.0 | 0.00 | 0.00 | 0.00 | 1016.0 | ||
| 20260508043411 | 2 | 257 | 0.0 | 0.0 | 0.00 | 0.00 | 0.00 | 96 | 1015.9 |
| 20260508042908 | 2 | 257 | 0.0 | 0.0 | 0.00 | 0.00 | 0.00 | 96 | 1015.9 |
| 20260508042400 | -17 | 0.0 | 0.0 | 0.00 | 0.00 | 0.00 | 1015.9 | ||
| 20260508041856 | -17 | 0.0 | 0.0 | 0.00 | 0.00 | 0.00 | 1015.8 | ||
| 20260508041353 | -17 | 0.0 | 0.0 | 0.00 | 0.00 | 0.00 | 1015.6 | ||
| 20260508040849 | -17 | 0.0 | 0.0 | 0.00 | 0.00 | 0.00 | 1015.6 | ||
| 20260508040347 | -17 | 0.0 | 0.0 | 0.00 | 0.00 | 0.00 | 1015.6 | ||
| 20260508035844 | -17 | 0.0 | 0.0 | 0.00 | 0.03 | 0.03 | 1015.6 | ||
| 20260508035341 | 3 | 257 | 0.0 | 0.0 | 0.00 | 0.03 | 0.03 | 94 | 1015.6 |
| 20260508034838 | 3 | 257 | 0.0 | 0.0 | 0.00 | 0.03 | 0.03 | 94 | 1015.5 |
| 20260508034335 | 3 | 258 | 0.0 | 0.0 | 0.00 | 0.03 | 0.03 | 94 | 1015.6 |
| 20260508033832 | 3 | 258 | 0.0 | 0.0 | 0.00 | 0.03 | 0.03 | 94 | 1015.5 |
| 20260508033331 | 3 | 258 | 0.0 | 0.0 | 0.00 | 0.03 | 0.03 | 93 | 1015.5 |
| 20260508032828 | 3 | 258 | 0.0 | 0.0 | 0.00 | 0.03 | 0.03 | 93 | 1015.4 |
| 20260508032325 | 3 | 258 | 0.0 | 0.0 | 0.00 | 0.03 | 0.03 | 92 | 1015.5 |
| 20260508031822 | 3 | 257 | 0.0 | 0.0 | 0.00 | 0.03 | 0.03 | 91 | 1015.5 |
| 20260508031318 | 4 | 258 | 0.0 | 0.0 | 0.00 | 0.03 | 0.03 | 91 | 1015.4 |
| 20260508030814 | 4 | 257 | 0.0 | 0.0 | 0.00 | 0.03 | 0.03 | 91 | 1015.4 |
| 20260508030312 | 4 | 257 | 0.0 | 0.0 | 0.00 | 0.03 | 0.03 | 91 | 1015.6 |
| 20260508025808 | 4 | 257 | 0.0 | 0.0 | 0.00 | 0.03 | 0.03 | 91 | 1015.5 |
| 20260508025306 | 4 | 257 | 0.0 | 0.0 | 0.00 | 0.03 | 0.03 | 90 | 1015.3 |
| 20260508024801 | 5 | 257 | 0.0 | 0.0 | 0.00 | 0.03 | 0.03 | 90 | 1015.3 |
| 20260508024258 | 5 | 257 | 0.0 | 0.0 | 0.00 | 0.03 | 0.03 | 89 | 1015.3 |
| 20260508023755 | 5 | 257 | 0.0 | 0.0 | 0.00 | 0.03 | 0.03 | 88 | 1015.2 |
| 20260508023252 | 5 | 257 | 0.0 | 0.0 | 0.00 | 0.03 | 0.03 | 87 | 1015.1 |
| 20260508022748 | 5 | 257 | 0.0 | 0.0 | 0.00 | 0.03 | 0.03 | 87 | 1015.2 |
| 20260508022245 | 5 | 258 | 0.0 | 0.0 | 0.00 | 0.03 | 0.03 | 88 | 1015.1 |
| 20260508021742 | 5 | 258 | 0.0 | 0.0 | 0.00 | 0.03 | 0.03 | 88 | 1014.9 |
| 20260508021237 | 5 | 258 | 0.0 | 0.0 | 0.00 | 0.03 | 0.03 | 87 | 1014.7 |
| 20260508020735 | 6 | 258 | 0.0 | 0.0 | 0.00 | 0.03 | 0.03 | 85 | 1014.8 |
| 20260508020232 | 6 | 258 | 0.0 | 0.0 | 0.00 | 0.03 | 0.03 | 87 | 1014.7 |
| 20260508015729 | 6 | 258 | 0.0 | 0.0 | 0.00 | 0.03 | 0.03 | 87 | 1014.6 |
| 20260508015226 | 6 | 258 | 0.0 | 0.0 | 0.00 | 0.03 | 0.03 | 86 | 1014.5 |
| 20260508014723 | 6 | 258 | 0.0 | 0.0 | 0.00 | 0.03 | 0.03 | 85 | 1014.5 |
| 20260508014220 | 7 | 258 | 0.0 | 0.0 | 0.00 | 0.03 | 0.03 | 83 | 1014.4 |
| 20260508013716 | 7 | 258 | 0.0 | 0.0 | 0.00 | 0.03 | 0.03 | 83 | 1014.3 |
| 20260508013212 | 7 | 258 | 0.0 | 0.0 | 0.00 | 0.03 | 0.03 | 80 | 1014.2 |
| 20260508012710 | 7 | 258 | 0.0 | 0.0 | 0.00 | 0.03 | 0.03 | 78 | 1014.3 |
| 20260508012206 | 7 | 258 | 0.0 | 0.0 | 0.00 | 0.03 | 0.03 | 77 | 1014.0 |
| 20260508011705 | 7 | 258 | 0.0 | 0.0 | 0.00 | 0.03 | 0.03 | 74 | 1014.1 |
| 20260508011202 | 8 | 258 | 0.0 | 0.0 | 0.00 | 0.03 | 0.03 | 74 | 1014.0 |
| 20260508010659 | 8 | 258 | 0.0 | 0.0 | 0.00 | 0.03 | 0.03 | 73 | 1013.8 |
| 20260508010157 | 8 | 258 | 0.0 | 0.0 | 0.00 | 0.03 | 0.03 | 70 | 1013.8 |
| 20260508005654 | 9 | 258 | 0.0 | 0.0 | 0.00 | 0.03 | 0.03 | 68 | 1013.8 |
| 20260508005151 | 10 | 257 | 0.0 | 0.0 | 0.00 | 0.03 | 0.03 | 66 | 1013.5 |
| 20260508004646 | 10 | 258 | 0.0 | 0.0 | 0.00 | 0.03 | 0.03 | 63 | 1013.6 |
| 20260508004143 | 10 | 258 | 0.0 | 0.0 | 0.00 | 0.03 | 0.03 | 58 | 1013.7 |
| 20260508003639 | 11 | 258 | 0.0 | 0.0 | 0.00 | 0.03 | 0.03 | 57 | 1013.4 |
| 20260508003137 | 11 | 258 | 0.0 | 0.0 | 0.00 | 0.03 | 0.03 | 57 | 1013.4 |
| 20260508002633 | 11 | 213 | 0.0 | 0.0 | 0.00 | 0.03 | 0.03 | 57 | 1013.4 |
| 20260508002131 | 12 | 269 | 0.0 | 0.0 | 0.00 | 0.03 | 0.03 | 52 | 1013.3 |
| 20260508001631 | 12 | 270 | 0.0 | 0.0 | 0.00 | 0.03 | 0.03 | 49 | 1013.3 |
| 20260508001128 | 13 | 283 | 1.6 | 1.6 | 0.00 | 0.03 | 0.03 | 43 | 1013.1 |
| 20260508000623 | 13 | 307 | 0.0 | 3.2 | 0.00 | 0.03 | 0.03 | 46 | 1013.2 |
| 20260508000121 | 13 | 319 | 3.2 | 6.4 | 0.00 | 0.03 | 0.03 | 41 | 1013.1 |
| 20260507235618 | 14 | 307 | 1.6 | 3.2 | 0.00 | 0.03 | 0.03 | 41 | 1012.9 |
| 20260507235115 | 14 | 309 | 6.4 | 9.7 | 0.00 | 0.03 | 0.03 | 39 | 1012.6 |
| 20260507234612 | 15 | 269 | 6.4 | 11.3 | 0.00 | 0.03 | 0.03 | 36 | 1013.0 |
| 20260507234108 | 15 | 309 | 1.6 | 4.8 | 0.00 | 0.03 | 0.03 | 39 | 1012.8 |
| 20260507233605 | 15 | 273 | 4.8 | 12.9 | 0.00 | 0.03 | 0.03 | 35 | 1012.7 |
| 20260507233104 | 15 | 302 | 6.4 | 9.7 | 0.00 | 0.03 | 0.03 | 35 | 1012.9 |
| 20260507232600 | 16 | 308 | 11.3 | 16.1 | 0.00 | 0.03 | 0.03 | 34 | 1012.7 |
| 20260507232057 | 16 | 316 | 4.8 | 9.7 | 0.00 | 0.03 | 0.03 | 35 | 1012.5 |
| 20260507231553 | 16 | 278 | 3.2 | 6.4 | 0.00 | 0.03 | 0.03 | 40 | 1012.5 |
| 20260507231051 | 16 | 313 | 9.7 | 12.9 | 0.00 | 0.03 | 0.03 | 36 | 1012.5 |
| 20260507230547 | 16 | 304 | 14.5 | 17.7 | 0.00 | 0.03 | 0.03 | 35 | 1012.6 |
| 20260507230044 | 16 | 311 | 9.7 | 16.1 | 0.00 | 0.03 | 0.03 | 36 | 1012.6 |
| 20260507225538 | 16 | 316 | 6.4 | 6.4 | 0.00 | 0.03 | 0.03 | 38 | 1012.3 |
| 20260507225035 | 16 | 310 | 12.9 | 17.7 | 0.00 | 0.03 | 0.03 | 36 | 1012.4 |
| 20260507224531 | 16 | 324 | 3.2 | 6.4 | 0.00 | 0.03 | 0.03 | 34 | 1012.4 |
| 20260507224028 | 16 | 257 | 9.7 | 17.7 | 0.00 | 0.03 | 0.03 | 39 | 1012.5 |
| 20260507223524 | 16 | 314 | 6.4 | 12.9 | 0.00 | 0.03 | 0.03 | 36 | 1012.2 |
| 20260507223021 | 16 | 313 | 14.5 | 25.7 | 0.00 | 0.03 | 0.03 | 36 | 1012.2 |
| 20260507222518 | 16 | 316 | 9.7 | 12.9 | 0.00 | 0.03 | 0.03 | 38 | 1012.3 |
| 20260507222015 | 15 | 285 | 6.4 | 12.9 | 0.00 | 0.03 | 0.03 | 37 | 1012.2 |
| 20260507221511 | 15 | 314 | 9.7 | 16.1 | 0.00 | 0.03 | 0.03 | 39 | 1012.2 |
| 20260507221008 | 16 | 312 | 9.7 | 12.9 | 0.00 | 0.03 | 0.03 | 39 | 1012.1 |
| 20260507220505 | 17 | 305 | 11.3 | 20.9 | 0.00 | 0.03 | 0.03 | 40 | 1012.1 |
| 20260507220002 | 16 | 330 | 11.3 | 17.7 | 0.00 | 0.03 | 0.03 | 35 | 1012.1 |
| 20260507215458 | 16 | 356 | 1.6 | 16.1 | 0.00 | 0.03 | 0.03 | 37 | 1011.8 |
| 20260507214956 | 17 | 320 | 14.5 | 17.7 | 0.00 | 0.03 | 0.03 | 35 | 1011.7 |
| 20260507214453 | 17 | 283 | 4.8 | 11.3 | 0.00 | 0.03 | 0.03 | 38 | 1011.6 |
| 20260507213949 | 17 | 318 | 6.4 | 14.5 | 0.00 | 0.03 | 0.03 | 37 | 1011.7 |
| 20260507213446 | 17 | 319 | 14.5 | 20.9 | 0.00 | 0.03 | 0.03 | 39 | 1011.8 |
| 20260507212943 | 16 | 317 | 9.7 | 12.9 | 0.00 | 0.03 | 0.03 | 39 | 1011.7 |
| 20260507212438 | 16 | 313 | 6.4 | 11.3 | 0.00 | 0.03 | 0.03 | 43 | 1011.9 |
| 20260507211936 | 17 | 317 | 11.3 | 17.7 | 0.00 | 0.03 | 0.03 | 42 | 1011.6 |
| 20260507211432 | 18 | 302 | 8.0 | 14.5 | 0.00 | 0.03 | 0.03 | 38 | 1011.3 |
| 20260507210929 | 17 | 249 | 1.6 | 12.9 | 0.00 | 0.03 | 0.03 | 34 | 1011.3 |
| 20260507210426 | 16 | 300 | 11.3 | 17.7 | 0.00 | 0.03 | 0.03 | 40 | 1011.6 |
| 20260507205923 | 16 | 326 | 1.6 | 11.3 | 0.00 | 0.03 | 0.03 | 40 | 1011.4 |
| 20260507205420 | 17 | 331 | 12.9 | 14.5 | 0.00 | 0.03 | 0.03 | 40 | 1011.4 |
| 20260507204916 | 16 | 30 | 4.8 | 6.4 | 0.00 | 0.03 | 0.03 | 39 | 1011.2 |
| 20260507204412 | 16 | 250 | 3.2 | 6.4 | 0.00 | 0.03 | 0.03 | 40 | 1011.4 |
| 20260507203910 | 16 | 314 | 12.9 | 17.7 | 0.00 | 0.03 | 0.03 | 40 | 1011.6 |
| 20260507203408 | 16 | 308 | 14.5 | 20.9 | 0.00 | 0.03 | 0.03 | 38 | 1011.7 |
| 20260507202904 | 16 | 250 | 12.9 | 17.7 | 0.00 | 0.03 | 0.03 | 44 | 1011.6 |
| 20260507202400 | 17 | 324 | 3.2 | 4.8 | 0.00 | 0.03 | 0.03 | 38 | 1011.3 |
| 20260507201856 | 17 | 320 | 3.2 | 9.7 | 0.00 | 0.03 | 0.03 | 39 | 1011.4 |
| 20260507201351 | 17 | 314 | 3.2 | 11.3 | 0.00 | 0.03 | 0.03 | 44 | 1011.4 |
| 20260507200848 | 17 | 308 | 9.7 | 16.1 | 0.00 | 0.03 | 0.03 | 42 | 1011.5 |
| 20260507200344 | 17 | 328 | 4.8 | 9.7 | 0.00 | 0.03 | 0.03 | 40 | 1011.8 |
| 20260507195840 | 17 | 297 | 14.5 | 22.5 | 0.00 | 0.03 | 0.03 | 43 | 1011.6 |
| 20260507195338 | 17 | 255 | 11.3 | 12.9 | 0.00 | 0.03 | 0.03 | 37 | 1011.7 |
| 20260507194835 | 17 | 278 | 8.0 | 16.1 | 0.00 | 0.03 | 0.03 | 45 | 1011.9 |
| 20260507194331 | 17 | 314 | 6.4 | 11.3 | 0.00 | 0.03 | 0.03 | 40 | 1011.7 |
| 20260507193828 | 17 | 323 | 4.8 | 9.7 | 0.00 | 0.03 | 0.03 | 39 | 1012.2 |
| 20260507193325 | 16 | 316 | 8.0 | 16.1 | 0.00 | 0.03 | 0.03 | 42 | 1012.2 |
| 20260507192820 | 15 | 309 | 11.3 | 17.7 | 0.00 | 0.03 | 0.03 | 43 | 1012.1 |
| 20260507192318 | 15 | 314 | 8.0 | 17.7 | 0.00 | 0.03 | 0.03 | 44 | 1012.4 |
| 20260507191814 | 15 | 337 | 9.7 | 16.1 | 0.00 | 0.03 | 0.03 | 47 | 1012.3 |
| 20260507191310 | 16 | 308 | 11.3 | 22.5 | 0.00 | 0.03 | 0.03 | 46 | 1012.1 |
| 20260507190808 | 17 | 330 | 9.7 | 16.1 | 0.00 | 0.03 | 0.03 | 40 | 1012.3 |
| 20260507190306 | 17 | 311 | 8.0 | 11.3 | 0.00 | 0.03 | 0.03 | 39 | 1012.1 |